Powrót do katalogu

THOR ABLESTAR DEB

LostLEO
NORAD 48815·DEBRIS·🇺🇸 United States

Wystrzelony Jun 29, 1961 z Cape Canaveral Space Force Station

Loading…

Następne Przeloty (najbliższe 24 godziny)

TLE

NieaktualneSource: Space-Track

Epoka: Feb 15, 2024, 05:47 UTC

1 48815U 61015MT  24046.24166609  .00025568  00000-0  71621-2 0  9994
2 48815  65.8119 341.4094 0023635 194.9675 165.0727 14.45829027 36888

Śledź THOR ABLESTAR DEB w czasie rzeczywistym z AllMySat

Download on the App Store